Theta_e
312 307 304 307 309 308 306 304 303 307 310 307 307 308 310 313 314 313 311 307 306 306 308 309 311 312 312 313 313 314 315 317 318 322 322 322 322 325 324 323 333 341 340 340
308 304 309 309 307 306 305 303 304 308 310 309 308 307 311 312 311 310 309 305 305 306 305 305 306 308 309 310 310 311 311 312 313 314 317 323 323 322 323 319 321 321 327 336
306 308 308 306 306 303 305 304 304 303 307 309 308 306 308 305 305 304 305 305 305 304 303 304 305 307 308 309 309 310 311 312 313 314 313 314 317 322 321 320 318 319 320 324
306 309 306 305 304 306 301 307 306 305 303 299 308 296 305 303 300 301 302 304 303 302 303 303 304 305 306 308 310 310 311 311 311 314 313 313 310 310 315 319 323 323 320 320
305 306 305 304 305 307 304 308 306 305 303 303 303 300 304 304 297 299 301 301 301 302 302 303 303 305 306 308 308 309 310 310 311 311 311 311 311 312 313 315 319 319 323 322
308 313 310 308 309 309 310 306 306 306 304 296 302 300 301 300 300 299 300 299 300 301 302 303 305 305 305 307 307 308 307 307 309 309 309 310 312 312 312 313 314 314 318 318
307 308 311 310 306 309 306 303 296 295 295 294 302 298 300 300 301 300 299 299 300 301 302 303 303 303 304 304 305 305 305 305 306 307 308 308 309 312 312 313 315 314 313 315
300 297 305 308 305 303 303 302 295 288 291 294 301 295 298 299 300 300 299 299 300 301 302 302 302 302 301 302 303 304 304 304 305 306 307 307 308 309 311 311 314 314 313 313
299 298 307 306 307 306 302 298 304 296 297 293 297 297 296 297 296 297 297 298 299 300 301 300 301 300 301 301 302 303 303 303 304 304 306 306 307 308 310 312 313 312 313 312
304 296 305 306 307 307 304 306 296 296 287 287 295 296 295 292 294 295 296 298 298 299 299 299 299 299 300 301 302 303 303 303 303 304 304 304 305 307 308 311 310 310 311 311
306 299 298 302 300 300 299 298 299 298 294 288 288 295 297 296 297 295 297 298 297 297 297 297 298 299 300 301 301 302 302 302 302 303 303 302 303 304 306 308 307 308 309 308
305 300 291 295 303 303 301 299 298 291 291 295 293 292 300 298 297 297 298 296 296 296 296 297 297 298 298 299 300 300 301 300 302 302 301 299 299 302 307 306 305 305 303 304
304 296 289 291 299 303 298 299 300 300 295 290 289 292 299 297 297 299 296 295 295 295 295 295 296 297 297 298 299 299 300 299 298 297 296 297 300 303 303 303 303 303 302 301
302 296 292 289 295 296 290 295 297 295 288 291 292 294 297 297 297 296 294 294 293 294 294 294 295 296 296 297 298 298 298 297 293 294 295 298 302 303 301 301 300 299 300 300
299 289 291 293 294 294 293 290 291 290 293 288 292 291 295 296 294 293 292 292 292 292 293 293 294 295 296 296 296 297 296 293 291 294 296 296 297 298 297 298 300 300 299 299
294 287 288 285 292 294 292 294 294 294 292 291 292 291 298 297 293 291 290 291 290 291 293 293 294 295 296 295 294 295 293 291 289 288 291 295 297 299 299 300 300 300 299 298
287 287 285 285 290 290 285 289 292 293 295 294 288 293 292 289 289 289 290 290 291 293 293 294 294 295 296 294 294 294 291 290 289 289 289 293 295 297 298 299 299 298 298 297
286 287 287 287 287 279 291 291 292 292 293 294 292 291 290 289 290 291 292 292 293 293 294 294 294 295 294 295 294 295 294 292 291 291 291 292 293 294 295 295 294 294 295 294
291 288 287 285 285 289 292 289 287 286 286 291 288 289 289 289 289 290 294 294 295 295 295 295 296 294 293 293 294 292 292 291 290 290 290 291 291 291 292 292 292 293 293 292
287 287 287 286 281 281 287 289 290 288 279 289 290 287 287 288 283 288 294 295 295 296 295 294 295 294 294 293 294 292 291 290 289 290 290 291 291 290 290 291 292 292 292 292
282 283 282 284 283 287 290 289 289 275 282 290 289 288 288 288 291 294 295 295 296 296 294 295 295 295 295 294 293 292 292 290 291 291 291 291 291 290 291 292 292 292 291 292
285 283 283 284 282 279 291 289 281 289 291 290 290 290 290 292 293 294 294 294 294 295 295 296 295 294 295 294 293 292 291 292 292 292 291 291 290 290 291 291 291 291 290 289
283 289 287 287 286 291 292 291 293 291 290 291 291 292 292 292 292 293 294 294 294 295 295 296 295 294 294 294 293 291 291 291 291 291 291 291 291 291 290 290 289 290 289 290
287 290 285 284 287 288 291 292 293 294 293 293 294 293 292 292 293 293 294 293 293 295 294 295 293 292 292 293 293 293 292 292 290 290 290 291 290 289 290 290 289 290 290 288
288 288 285 286 287 289 290 291 292 292 293 292 293 293 293 293 293 294 293 293 293 293 294 294 292 291 291 292 292 293 292 291 290 289 289 289 289 288 288 289 289 288 289 288
289 286 285 285 288 289 289 291 292 291 291 292 292 292 293 293 293 293 292 293 293 292 293 292 291 291 291 291 291 291 291 290 289 288 288 288 287 287 287 287 288 288 286 287
Wind_Speed
11 10 12 9 7 14 11 13 12 12 6 6 13 16 21 17 16 12 10 6 4 4 6 8 11 12 13 14 15 16 15 15 12 10 8 8 9 5 7 9 14 12 10 11
7 13 12 7 8 12 14 14 14 13 14 14 20 23 22 21 2 5 9 6 5 4 4 7 9 10 12 13 13 13 14 14 12 10 10 7 5 3 2 3 7 9 12 11
12 6 3 6 8 11 14 14 15 18 19 21 25 23 13 8 12 11 9 9 6 5 5 7 8 10 11 13 14 15 15 16 13 14 10 9 10 5 4 3 4 4 7 9
10 3 7 11 12 12 16 15 17 19 18 18 19 19 23 17 11 10 9 7 6 4 5 6 8 10 11 11 12 14 15 17 15 16 13 15 12 11 10 10 6 6 7 5
9 7 10 13 13 13 18 16 17 20 20 21 21 16 18 14 13 11 9 7 5 3 4 7 8 9 11 12 12 12 13 14 14 15 15 12 14 12 11 9 11 10 8 9
18 16 11 15 13 12 13 15 20 21 18 15 19 8 8 9 11 12 9 6 2 3 5 7 9 10 11 12 13 13 14 15 15 14 16 17 17 15 13 13 11 9 8 8
12 12 12 4 15 7 9 13 10 11 11 11 5 7 9 10 7 12 10 5 2 4 7 9 12 13 13 14 14 13 16 18 18 18 18 18 19 19 19 17 12 13 11 9
13 6 5 5 9 12 13 13 8 13 11 15 23 12 7 11 11 11 7 2 1 5 8 11 13 13 13 14 14 14 17 18 19 19 19 19 20 14 13 16 13 10 10 10
6 7 3 4 6 8 3 9 9 11 17 17 11 6 10 11 10 6 4 2 7 10 11 13 13 13 13 14 15 15 16 18 18 21 18 20 20 21 18 18 13 9 12 10
5 9 10 16 4 15 14 8 7 1 6 10 8 19 9 10 10 7 5 5 9 12 14 14 13 15 15 15 14 14 15 17 19 19 18 18 21 19 19 16 13 14 11 12
7 7 1 5 8 13 5 10 12 9 7 7 11 2 7 6 5 4 4 10 12 13 13 13 14 15 15 14 16 17 16 18 16 14 17 19 20 18 19 10 9 9 10 11
5 3 6 16 12 11 14 17 14 7 11 8 8 10 7 7 4 3 11 11 12 13 14 15 15 15 15 16 17 17 19 18 18 20 20 18 14 16 11 6 8 10 9 10
2 4 4 4 10 16 14 17 17 18 5 15 13 8 9 7 3 9 11 12 15 15 15 15 15 15 16 17 18 19 20 19 22 20 17 13 14 4 5 5 6 7 8 9
8 4 9 14 17 1 6 11 12 11 6 14 19 26 18 9 13 11 12 15 16 14 15 16 16 16 18 15 18 19 18 20 18 18 11 5 6 7 7 7 7 8 9 9
6 9 10 15 15 9 11 9 13 17 21 16 19 23 20 17 13 12 15 16 16 17 17 17 17 19 17 15 14 17 14 16 16 18 8 7 7 8 6 5 6 7 8 9
4 4 3 4 14 19 22 23 23 26 25 25 25 25 18 14 8 13 12 14 17 18 18 17 18 19 15 15 12 14 9 13 12 12 13 10 9 8 7 8 8 8 9 10
6 4 4 6 4 8 16 20 26 26 23 23 22 17 8 11 12 9 12 14 16 15 16 16 18 16 12 11 13 11 4 8 8 9 11 13 13 12 11 11 11 11 11 10
7 4 3 4 1 9 1 3 5 12 15 14 12 11 10 10 7 11 11 15 10 15 17 15 13 13 12 10 11 10 4 7 8 8 10 11 12 12 11 11 11 10 8 10
5 5 4 5 10 17 16 9 4 5 11 11 12 12 7 5 11 13 13 5 10 13 12 11 10 9 11 9 10 11 8 9 9 9 10 10 10 12 11 10 9 9 8 8
1 2 5 5 6 7 8 9 6 2 13 12 4 4 4 8 9 10 8 9 10 9 11 10 11 10 10 6 8 10 8 8 8 9 9 10 10 12 12 12 11 8 9 9
5 4 11 11 8 7 6 10 3 2 3 8 8 5 10 12 12 14 13 10 11 12 11 13 11 9 8 6 7 9 8 8 8 9 9 10 10 11 11 11 9 9 9 10
11 7 6 7 5 9 11 10 6 4 5 6 8 9 12 13 14 13 13 8 12 15 12 11 9 8 8 6 6 10 9 8 8 9 10 10 10 10 10 12 12 11 10 10
6 8 3 6 3 8 6 4 9 4 6 9 11 13 13 14 14 14 12 13 13 15 12 9 10 8 7 7 7 8 8 8 9 10 10 10 10 10 11 10 11 10 9 8
5 6 4 3 6 9 9 11 13 14 15 15 17 15 15 14 15 16 13 13 12 13 12 9 11 11 8 7 6 7 8 7 9 9 10 10 10 11 11 9 9 8 9 8
4 7 7 8 11 13 15 14 13 14 16 15 17 13 15 16 16 12 13 14 12 12 13 9 10 9 9 8 7 7 8 9 9 9 9 9 9 10 10 9 8 8 9 9
8 6 7 4 3 6 11 12 12 14 14 14 15 15 16 17 11 10 13 13 12 13 12 10 12 10 10 8 7 8 6 8 9 9 7 7 8 9 8 9 10 8 8 14
Wind_Direction
194 237 230 256 261 291 308 281 272 278 296 273 258 280 281 276 269 221 155 155 132 89 52 35 27 30 19 25 16 16 13 12 3 5 12 4 0 345 4 4 328 256 228 230
203 233 260 1 288 270 264 269 275 283 292 311 299 288 282 275 321 55 117 138 115 112 76 44 30 25 24 18 13 7 6 5 1 3 347 350 341 319 305 329 331 354 343 250
272 0 37 243 243 255 252 269 287 308 309 287 276 270 271 96 99 103 106 108 104 66 40 40 19 17 9 16 4 356 357 351 356 354 343 336 325 294 300 314 306 344 346 334
277 36 259 241 246 268 276 294 310 295 293 290 310 289 282 158 131 130 131 131 115 84 47 14 13 10 0 10 360 354 351 342 345 341 339 336 316 312 320 308 303 309 298 311
271 228 245 252 262 295 293 302 288 287 280 283 277 269 282 129 161 155 149 123 97 50 20 7 3 350 340 354 354 345 338 333 337 335 328 321 311 311 303 291 288 290 293 291
266 276 283 278 292 282 303 281 273 269 258 264 273 281 283 152 190 155 142 131 110 17 348 339 335 336 336 340 345 340 335 328 327 327 325 319 308 303 298 292 285 275 270 272
240 225 234 239 274 212 246 273 298 278 253 242 135 257 299 119 127 153 158 136 72 4 341 326 325 334 339 342 338 336 334 327 324 322 318 312 305 301 296 287 279 284 283 267
278 269 201 154 279 330 315 294 279 296 296 305 323 284 97 114 99 98 108 115 287 314 316 315 328 341 336 330 328 331 325 322 324 318 314 315 308 294 284 288 297 300 295 291
334 265 69 249 277 299 4 263 351 302 281 267 241 131 123 136 137 144 134 276 335 326 324 328 337 331 324 325 327 326 327 323 317 314 319 313 306 300 289 279 275 269 275 283
331 278 285 291 303 257 239 294 274 225 282 285 291 301 42 171 174 180 225 321 324 329 337 336 328 327 327 322 317 323 320 320 318 318 303 311 305 298 296 285 282 280 286 282
284 186 229 313 231 269 202 248 242 277 244 264 303 4 43 53 167 191 279 337 334 334 329 328 319 325 316 322 322 308 332 327 313 308 308 305 299 300 293 279 309 307 321 308
27 347 243 239 272 260 257 263 229 224 243 243 289 273 33 110 114 299 324 329 335 324 330 321 321 315 321 323 320 335 339 331 326 311 308 305 295 294 281 344 344 339 315 297
96 220 266 239 241 226 245 248 252 244 261 244 250 252 148 151 304 306 328 333 325 320 322 318 319 325 325 327 335 343 335 338 324 312 298 294 289 267 343 343 338 315 312 307
100 225 234 253 279 10 231 243 251 256 239 258 243 268 282 223 257 330 322 325 317 318 318 320 321 323 321 345 341 331 348 336 325 306 288 291 338 349 2 1 338 320 313 301
165 241 230 252 270 268 261 222 229 236 240 242 266 274 284 308 329 322 323 321 311 319 316 317 324 315 325 347 333 327 357 345 341 350 9 14 339 334 308 316 326 336 323 321
157 269 237 249 248 250 252 242 229 224 238 255 270 275 282 286 322 310 316 310 312 312 316 324 310 321 342 337 324 327 2 345 349 349 344 333 317 319 335 334 330 328 328 334
165 206 186 260 226 277 272 242 244 256 248 238 241 258 346 302 297 309 307 304 308 318 307 301 323 329 334 320 325 332 8 322 336 338 343 323 321 321 331 327 325 326 331 324
156 187 210 273 193 245 358 77 296 264 247 256 264 268 274 294 305 294 301 285 312 318 317 316 321 327 334 324 326 330 315 301 323 329 328 326 327 323 324 319 315 313 309 308
161 181 224 241 229 284 276 179 209 228 253 246 255 262 271 268 302 283 270 345 318 312 319 316 302 322 315 315 325 324 322 336 335 341 326 322 328 323 319 311 314 311 310 311
104 250 226 188 244 262 60 101 78 40 267 233 107 210 248 317 280 275 330 318 303 310 308 314 303 288 275 311 322 320 322 324 337 334 321 322 319 316 312 316 314 304 299 298
177 196 227 229 247 281 73 126 131 255 43 124 148 219 250 252 259 282 288 288 318 304 281 272 276 295 303 329 311 303 311 321 336 324 326 321 324 320 320 326 322 319 313 315
190 189 198 221 258 263 114 139 207 52 132 177 248 278 281 275 277 284 289 318 285 279 276 281 284 280 293 293 291 301 312 336 331 332 325 328 328 329 324 328 329 327 312 307
226 217 294 210 276 117 199 203 230 259 248 280 297 287 282 281 282 293 294 283 274 277 284 284 290 297 281 282 286 295 312 330 335 325 328 327 332 331 332 328 327 318 309 318
230 242 225 283 263 286 249 237 257 264 265 257 258 280 289 289 285 282 293 279 273 281 289 302 298 279 285 280 280 289 311 323 320 324 329 330 329 339 334 327 326 323 322 322
246 168 234 254 267 281 269 263 282 292 279 284 281 273 269 273 277 287 286 285 285 287 286 287 283 282 284 288 296 299 321 324 322 325 329 331 335 334 326 322 320 319 315 313
205 216 213 245 299 285 293 306 304 294 285 277 285 286 288 284 301 286 274 284 281 281 279 279 278 277 277 286 300 295 320 329 320 324 329 327 327 323 325 316 316 303 291 302